Weather History for KAPN - January, 2012

Change the Weather History Date:

Monday, January 23, 2012

  Actual Average Record
Temperature  
Mean Temperature 36 °F 18 °F  
Max Temperature 43 °F 27 °F 49 °F (1989)
Min Temperature 29 °F 11 °F -23 °F (1948)
Degree Days  
Heating Degree Days 29 46  
Month to date heating degree days 954 1047  
Since 1 July heating degree days 3586 4108  
Moisture  
Dew Point 36 °F    
Average Humidity 91    
Maximum Humidity 100    
Minimum Humidity 82    
Precipitation  
Precipitation 0.37 in 0.05 in 0.41 in (1965)
Month to date precipitation 1.56 1.29  
Year to date precipitation 1.56 1.29  
Snow  
Snow T in 0.70 in 4.60 in (1965)
Month to date snowfall 16.9 16.0  
Since 1 July snowfall 22.1 43.3  
Snow Depth 8.00 in    
Sea Level Pressure  
Sea Level Pressure 29.47 in    
Wind  
Wind Speed 11 mph (SSE)    
Max Wind Speed 20 mph    
Max Gust Speed 25 mph    
Visibility 5 miles    
Events Rain , Thunderstorm    
T = Trace of Precipitation, MM = Missing Value Source: NWS Daily Summary

Daily Weather History Graph

Daily Weather History Graph

Search for Another Location

Airport or City:

Trip Planner

Search our weather history database for the weather conditions in past years. The results will help you decide how hot, cold, wet, or windy it might be!

Date:

Astronomy

Jan. 23, 2012 Rise Set
Actual Time 8:03 AM EST 5:28 PM EST
Civil Twilight 7:31 AM EST 6:00 PM EST
Nautical Twilight 6:55 AM EST 6:36 PM EST
Astronomical Twilight 6:20 AM EST 7:11 PM EST
Moon 7:55 AM EST (1/23) 6:19 PM EST (1/23)
Length of Visible Light 10h 29m
Length of Day
9h 24m
New Moon, 0% of the Moon is Illuminated
Jan 23
New Moon
Jan 30
First Quarter
Feb 7
Full
Feb 14
Last Quarter
Feb 21
New

Hourly Weather History & Observations

Time (EST) Temp. Windchill Dew Point Humidity Pressure Visibility Wind Dir Wind Speed Gust Speed Precip Events Conditions
12:01 AM 28.4 °F 22.2 °F 28.4 °F 100% 29.78 in 2.5 mi SSE 5.8 mph - 0.00 in Rain Light Freezing Rain
12:19 AM 28.4 °F 23.3 °F 28.4 °F 100% 29.76 in 2.5 mi SE 4.6 mph - 0.00 in   Overcast
12:54 AM 30.0 °F 23.2 °F 28.9 °F 96% 29.75 in 3.0 mi SE 6.9 mph - 0.00 in   Overcast
1:32 AM 30.2 °F 23.4 °F 30.2 °F 100% 29.71 in 2.0 mi SE 6.9 mph - N/A   Overcast
1:44 AM 30.2 °F 22.6 °F 30.2 °F 100% 29.70 in 1.8 mi SE 8.1 mph - N/A   Overcast
1:54 AM 30.9 °F 27.5 °F 30.9 °F 100% 29.73 in 1.5 mi SSE 3.5 mph - N/A   Overcast
2:15 AM 32.0 °F 26.4 °F 32.0 °F 100% 29.69 in 1.0 mi ESE 5.8 mph - 0.00 in Rain Light Freezing Rain
2:39 AM 32.0 °F 25.6 °F 32.0 °F 100% 29.69 in 1.0 mi SE 6.9 mph - 0.01 in   Overcast
2:54 AM 32.0 °F 25.6 °F 32.0 °F 100% 29.69 in 1.0 mi ESE 6.9 mph - 0.01 in   Overcast
3:54 AM 33.1 °F 24.9 °F 33.1 °F 100% 29.63 in 0.8 mi SE 10.4 mph - 0.01 in   Overcast
4:37 AM 33.8 °F 26.4 °F 33.8 °F 100% 29.55 in 2.0 mi ESE 9.2 mph - 0.07 in Rain Light Rain
4:46 AM 33.8 °F 25.8 °F 33.8 °F 100% 29.55 in 4.0 mi ESE 10.4 mph - 0.07 in Rain Light Rain
4:54 AM 34.0 °F 26.6 °F 34.0 °F 100% 29.57 in 3.0 mi ESE 9.2 mph - 0.07 in   Overcast
5:00 AM 33.8 °F 26.4 °F 33.8 °F 100% 29.54 in 1.8 mi ESE 9.2 mph - N/A   Overcast
5:17 AM 33.8 °F 25.8 °F 33.8 °F 100% 29.51 in 0.8 mi ESE 10.4 mph - 0.01 in Rain Light Rain
5:54 AM 34.0 °F 25.5 °F 34.0 °F 100% 29.55 in 1.0 mi SSE 11.5 mph - 0.02 in Rain Light Rain
6:05 AM 33.8 °F 27.0 °F 33.8 °F 100% 29.50 in 1.2 mi SE 8.1 mph - 0.04 in Rain , Thunderstorm Heavy Thunderstorms and Rain
6:18 AM 35.6 °F 28.6 °F 35.6 °F 100% 29.50 in 3.0 mi SE 9.2 mph - 0.12 in Rain , Thunderstorm Thunderstorms and Rain
6:30 AM 35.6 °F 28.6 °F 35.6 °F 100% 29.49 in 4.0 mi SE 9.2 mph - 0.15 in Rain , Thunderstorm Light Thunderstorms and Rain
6:54 AM 36.0 °F 27.5 °F 35.1 °F 97% 29.49 in 7.0 mi SE 12.7 mph - 0.18 in Rain , Thunderstorm Light Thunderstorms and Rain
7:02 AM 35.6 °F 28.0 °F 35.6 °F 100% 29.45 in 7.0 mi SE 10.4 mph - 0.00 in Rain Light Rain
7:54 AM 37.0 °F 28.5 °F 36.0 °F 96% 29.44 in 9.0 mi SE 13.8 mph - 0.03 in Rain Light Rain
8:00 AM 37.4 °F 27.5 °F 35.6 °F 93% 29.40 in 8.0 mi SE 18.4 mph 23.0 mph 0.00 in Rain Light Rain
8:54 AM 37.9 °F 28.5 °F 37.0 °F 97% 29.44 in 8.0 mi SSE 17.3 mph - 0.01 in   Overcast
9:18 AM 37.4 °F 28.5 °F 37.4 °F 100% 29.43 in 2.0 mi SSE 15.0 mph - 0.00 in Rain Light Rain
9:42 AM 37.4 °F 28.2 °F 37.4 °F 100% 29.42 in 3.0 mi SSE 16.1 mph - 0.00 in   Overcast
9:54 AM 37.9 °F 29.2 °F 37.9 °F 100% 29.43 in 3.0 mi South 15.0 mph - 0.00 in   Overcast
10:00 AM - - - N/A% - - North - - N/A   Unknown
10:11 AM 37.4 °F 29.3 °F 37.4 °F 100% 29.40 in 3.0 mi South 12.7 mph - N/A   Overcast
10:54 AM 39.9 °F 31.1 °F 39.0 °F 97% 29.43 in 3.0 mi South 17.3 mph - N/A   Overcast
11:14 AM 39.2 °F 29.8 °F 39.2 °F 100% 29.41 in 2.5 mi South 18.4 mph - N/A   Overcast
11:54 AM 39.9 °F 32.9 °F 39.0 °F 97% 29.41 in 2.0 mi SSE 11.5 mph - N/A   Overcast
12:02 PM 39.2 °F 31.6 °F 39.2 °F 100% 29.38 in 3.0 mi SSE 12.7 mph - N/A   Overcast
12:21 PM 39.2 °F 31.6 °F 39.2 °F 100% 29.37 in 4.0 mi SSE 12.7 mph 21.9 mph N/A   Overcast
12:54 PM 41.0 °F 33.9 °F 39.9 °F 96% 29.37 in 3.0 mi SSE 12.7 mph - N/A   Overcast
1:01 PM 41.0 °F 34.7 °F 39.2 °F 93% 29.35 in 2.5 mi SSE 10.4 mph - N/A   Overcast
1:06 PM 41.0 °F 35.2 °F 39.2 °F 93% 29.35 in 1.5 mi SSE 9.2 mph - N/A   Overcast
1:36 PM 41.0 °F 33.9 °F 39.2 °F 93% 29.33 in 2.0 mi SSE 12.7 mph - 0.00 in Rain Light Rain
1:54 PM 41.0 °F 34.7 °F 41.0 °F 100% 29.34 in 2.5 mi SSE 10.4 mph - 0.00 in Rain Light Rain
1:59 PM 41.0 °F 35.2 °F 41.0 °F 100% 29.32 in 3.0 mi SSE 9.2 mph - 0.01 in   Overcast
2:43 PM 41.0 °F 35.2 °F 41.0 °F 100% 29.31 in 2.5 mi SSE 9.2 mph - 0.01 in Rain Light Rain
2:54 PM 41.0 °F 34.3 °F 41.0 °F 100% 29.32 in 2.5 mi SSE 11.5 mph - 0.02 in Rain Light Rain
3:03 PM 41.0 °F 34.7 °F 41.0 °F 100% 29.30 in 4.0 mi SSE 10.4 mph - 0.00 in Rain Light Rain
3:23 PM 42.8 °F 36.6 °F 41.0 °F 93% 29.30 in 6.0 mi South 11.5 mph - 0.01 in Rain Light Rain
3:54 PM 41.0 °F 35.8 °F 39.9 °F 96% 29.31 in 10.0 mi South 8.1 mph - 0.01 in   Overcast
4:08 PM 42.8 °F 36.6 °F 41.0 °F 93% 29.29 in 10.0 mi South 11.5 mph - N/A   Overcast
4:27 PM 42.8 °F 36.2 °F 41.0 °F 93% 29.29 in 10.0 mi South 12.7 mph 18.4 mph N/A   Overcast
4:54 PM 42.1 °F 35.7 °F 41.0 °F 96% 29.32 in 6.0 mi South 11.5 mph - N/A   Overcast
5:43 PM 42.8 °F 38.0 °F 41.0 °F 93% 29.31 in 10.0 mi SSW 8.1 mph - N/A   Overcast
5:54 PM 43.0 °F 38.2 °F 41.0 °F 93% 29.34 in 10.0 mi SSW 8.1 mph - 0.00 in Rain Light Rain
6:28 PM 42.8 °F 36.2 °F 39.2 °F 87% 29.34 in 10.0 mi SW 12.7 mph 21.9 mph 0.00 in Rain Light Rain
6:54 PM 41.0 °F 34.3 °F 37.9 °F 89% 29.37 in 10.0 mi WSW 11.5 mph - 0.00 in Rain Light Rain
7:54 PM 37.9 °F 30.0 °F 33.1 °F 83% 29.42 in 10.0 mi WSW 12.7 mph 18.4 mph 0.00 in   Overcast
8:54 PM 36.0 °F 29.0 °F 30.9 °F 82% 29.47 in 10.0 mi West 9.2 mph - 0.00 in Rain Light Rain
9:54 PM 35.1 °F 30.1 °F 30.9 °F 85% 29.50 in 10.0 mi WSW 5.8 mph - 0.00 in   Overcast
10:14 PM 35.6 °F 29.2 °F 30.2 °F 81% 29.49 in 10.0 mi WSW 8.1 mph - N/A   Overcast
10:54 PM 35.1 °F 27.9 °F 30.9 °F 85% 29.53 in 10.0 mi WSW 9.2 mph - N/A   Overcast
11:06 PM 35.6 °F 27.5 °F 30.2 °F 81% 29.52 in 10.0 mi WSW 11.5 mph - N/A   Overcast
11:54 PM 35.1 °F 27.9 °F 30.0 °F 82% 29.56 in 10.0 mi WSW 9.2 mph - N/A   Overcast